Location: Penton Mewsey
(51.2167°N, 1.5167°W)
Time: 00:51:51
(UTC+00:00)

ERS-1 Rocket - Pass Details

Date: 30 March 2020
Orbit: 754 x 757 km, 98.5° (Epoch: 30 May)

Event Time Altitude Azimuth Distance (km) Brightness Sun altitude
Exits shadow 22:28:38 32° 266° (W) 1,280 4.3 -30.4°
Drops below altitude 10° 22:33:08 10° 328° (NNW) 2,294 6.4 -30.8°
Sets 22:35:40 0° 339° (NNW) 3,224 7.4 -31.0°
